Location: Ariel
(45.9570°N, 122.5700°W)
Time: 17:24:36
(UTC-08:00)

Tiangong 2 - Visible Passes

Search period start: 17 November 2018 00:00
Search period end: 27 November 2018 00:00
Orbit: 382 x 393 km, 42.8° (Epoch: 17 November)

Date Brightness Start Highest point End Pass type
(mag) Time Alt. Az. Time Alt. Az. Time Alt. Az.
24 Nov 3.8 06:41:19 10° SSW 06:43:45 20° SSE 06:46:12 10° ESE visible
25 Nov 4.0 05:43:40 10° S 05:45:22 14° SSE 05:47:04 10° ESE visible
26 Nov 3.0 06:20:21 10° SW 06:23:09 28° SSE 06:25:58 10° E visible
